This is the latest recevied weather packets stored in our database for station/object KG5TTF. If no packets are shown the sender has not sent any weather packets the latest 10 day(s).
| Time | Temp. | Humidity | Pressure | Rain* | Wind** | Luminosity | Snow |
|---|---|---|---|---|---|---|---|
| 1778030635 | 0° C | 99% | 1016.1 hPa | 0 mm | - | 11 W/m² | - |
| 1778030332 | 0° C | 99% | 1016.1 hPa | 0 mm | - | 18 W/m² | - |
| 1778030029 | 0° C | 99% | 1016 hPa | 0 mm | - | 19 W/m² | - |
| 1778029726 | 0° C | 99% | 1016 hPa | 0 mm | - | 24 W/m² | - |
| 1778029425 | 0° C | 99% | 1015.9 hPa | 0 mm | - | 28 W/m² | - |
| 1778029121 | 0° C | 99% | 1016 hPa | 0 mm | - | 30 W/m² | - |
| 1778028818 | 0° C | 99% | 1015.8 hPa | 0 mm | - | 22 W/m² | - |
| 1778028514 | 0° C | 99% | 1015.9 hPa | 0 mm | - | 20 W/m² | - |
| 1778028212 | 0° C | 99% | 1015.9 hPa | 0 mm | - | 16 W/m² | - |
| 1778027908 | 0° C | 99% | 1015.8 hPa | 0 mm | - | 17 W/m² | - |
| 1778027604 | 0° C | 99% | 1015.8 hPa | 0 mm | - | 17 W/m² | - |
| 1778027300 | 0° C | 99% | 1015.7 hPa | 0 mm | - | 18 W/m² | - |
| 1778026997 | 0° C | 99% | 1015.8 hPa | 0 mm | - | 24 W/m² | - |
| 1778026693 | 0° C | 99% | 1015.8 hPa | 0 mm | - | 22 W/m² | - |
| 1778026390 | 0° C | 99% | 1015.5 hPa | 0 mm | - | 18 W/m² | - |
| 1778026087 | 0° C | 99% | 1015.3 hPa | 0 mm | - | 11 W/m² | - |
| 1778025785 | 0° C | 99% | 1015.4 hPa | 0 mm | - | 10 W/m² | - |
| 1778025481 | 0° C | 99% | 1015.5 hPa | 0 mm | - | 11 W/m² | - |
| 1778025179 | 0° C | 99% | 1015.4 hPa | 0 mm | - | 14 W/m² | - |
| 1778024876 | 0° C | 99% | 1015.4 hPa | 0 mm | - | 13 W/m² | - |
| 1778024574 | 0° C | 99% | 1015.7 hPa | 0 mm | - | 18 W/m² | - |
| 1778024270 | 0° C | 99% | 1015.5 hPa | 0 mm | - | 24 W/m² | - |
| 1778023968 | 0° C | 99% | 1015.7 hPa | 0 mm | - | 22 W/m² | - |
| 1778023665 | 0° C | 99% | 1015.7 hPa | 0 mm | - | 25 W/m² | - |
| 1778023362 | 0° C | 99% | 1015.4 hPa | 0 mm | - | 38 W/m² | - |
* Rain latest hour (hover to see other rain measurements)
** Current wind speed in m/s (hover to see current wind gust speed)